Location: Dreilärchen
(47.9312°N, 8.6113°E)
Time: 19:41:36
(UTC+00:00)

Cosmos 2278 Rocket - Pass Details

Date: 26 May 2022
Orbit: 840 x 846 km, 71.0° (Epoch: 02 July)

Event Time Altitude Azimuth Distance (km) Brightness Sun altitude
Rises 01:37:06 0° 319° (NW) 3,416 5.6 -14.7°
Reaches altitude 10° 01:40:23 10° 300° (WNW) 2,475 4.6 -14.4°
Maximum altitude 01:43:52 17° 262° (W) 2,022 3.8 -14.1°
Enters shadow 01:45:17 16° 244° (WSW) 2,099 3.7 -13.9°
